Regional Weather Roundup
Issued by NWS Charleston, SC

Current Version | Previous Version | Text Only | Print | Product List | Glossary Off
Versions: 1 2 3 4 5 6 7 8 9 10 11 12 13 14 15 16 17 18 19 20 21 22 23 24 25 26 27 28 29 30 31 32 33 34 35 36 37 38 39 40 41 42 43 44 45 46 47 48 49 50
069 ASUS42 KCHS 290013 RWRCHS REGIONAL WEATHER ROUNDUP NATIONAL WEATHER SERVICE CHARLESTON SC 800 PM EDT THU JUL 28 2016 NOTE: "FAIR" INDICATES FEW OR NO CLOUDS BELOW 12,000 FEET WITH NO SIGNIFICANT WEATHER AND/OR OBSTRUCTIONS TO VISIBILITY. NOT ALL STATIONS ARE QUALITY CONTROLLED. USE DATA WITH CAUTION... ESPECIALLY DEWPOINT OBSERVATIONS. SCZ027-030-031-034>040-042>050-290100- ...SOUTHEAST SOUTH CAROLINA... CITY SKY/WX TMP DP RH WIND PRES REMARKS N CHARLESTON CLEAR 88 76 67 S10 29.93S HX 99 6HR MIN TEMP: 88; 6HR MAX TEMP: 98; WATERFRONT PRK N/A 88 79 74 SW9 29.91F HX 103 MOUNT PLEASANT FAIR 88 79 74 S9G16 29.93S HX 102 JOHNS ISLAND FAIR 88 79 74 S9 29.94S HX 102 PINOPOLIS N/A 93 72 49 SW8 29.83S HX 100 MONCKS CORNER FAIR 86 72 62 S8 29.92R HX 92 SUMMERVILLE NOT AVBL BEAUFORT MCAS PTCLDY 89 78 70 VRB7 29.93S HX 103 6HR MIN TEMP: 89; 6HR MAX TEMP: 100; BEAUFORT ARPT FAIR 88 79 74 S8 29.93S HX 102 HILTON HEAD IS CLEAR 90 79 70 S14 29.95S HX 105 WALTERBORO CLEAR 93 68 43 S5 29.93S HX 97 ALLENDALE FAIR 93 66 40 CALM 29.92R HX 96 ...SOUTHERN MIDLANDS AND PEE DEE... CITY SKY/WX TMP DP RH WIND PRES REMARKS GEORGETOWN FAIR 86 75 70 S9 29.93R HX 95 KINGSTREE FAIR 90 66 45 CALM 29.90R HX 92 ORANGEBURG CLEAR 92 66 42 SW8 29.91S HX 94 6HR MIN TEMP: 92; 6HR MAX TEMP: 98; BARNWELL NOT AVBL AIKEN FAIR 90 64 43 SW15 29.96S HX 91 MANNING FAIR 91 70 49 SW6 29.90S HX 97 COLUMBIA PTCLDY 95 66 38 W9 29.89R HX 98 6HR MIN TEMP: 95; 6HR MAX TEMP: 101; SUMTER CLEAR 92 68 44 SW13 29.87R HX 96 6HR MIN TEMP: 92; 6HR MAX TEMP: 98; FLORENCE CLEAR 91 70 49 S7 29.88S HX 96 6HR MIN TEMP: 91; 6HR MAX TEMP: 97; MYRTLE BEACH CLEAR 90 72 55 SW17 29.91S HX 96 N MYRTLE BEACH CLEAR 86 78 77 SW20 29.90S HX 98 6HR MIN TEMP: 86; 6HR MAX TEMP: 97; $$ GAZ063-065-086>088-099>101-113>116-118-119-134>141-150-290100- ...SOUTHEAST GEORGIA... CITY SKY/WX TMP DP RH WIND PRES REMARKS SAVANNAH ARPT PTCLDY 91 75 59 S8 29.93S HX 101 6HR MIN TEMP: 91; 6HR MAX TEMP: 99; HUNTER AAF CLEAR 89 81 78 S6 29.92 HX 107 6HR MIN TEMP: 89; 6HR MAX TEMP: 99; FORT STEWART CLEAR 94 64 36 W6 29.91S HX 96 6HR MIN TEMP: 94; 6HR MAX TEMP: 99; STATESBORO CLEAR 92 71 49 W3 29.94R HX 98 SYLVANIA NOT AVBL CLAXTON FAIR 94 69 43 SW3 29.94S HX 99 ...CSRA...CENTRAL AND FAR SOUTHEAST GEORGIA... CITY SKY/WX TMP DP RH WIND PRES REMARKS THOMSON NOT AVBL AUGUSTA-BUSH CLEAR 93 64 38 W13 29.91R HX 94 6HR MIN TEMP: 93; 6HR MAX TEMP: 100; AUGUSTA-DANIEL CLEAR 93 66 40 SW8 29.94R HX 96 SWAINSBORO FAIR 93 63 36 W6 29.95S HX 94 VIDALIA CLEAR 95 61 31 W7 29.96R HX 95 EASTMAN FAIR 93 44 18 W3 29.99R HAZLEHURST FAIR 94 67 42 CALM 29.95S HX 97 ALMA CLEAR 93 67 42 W5 29.96S HX 96 6HR MIN TEMP: 93; 6HR MAX TEMP: 99; WAYCROSS CLEAR 97 71 42 W8 29.97R HX 104 JESUP FAIR 93 72 49 W3 29.95S HX 100 BAXLEY FAIR 93 70 46 W7 29.96R HX 99 BRUNSWICK CLEAR 90 79 70 S12G17 29.98R HX 105 SAINT SIMONS CLEAR 88 79 74 S13G18 29.97R HX 103 6HR MIN TEMP: 88; 6HR MAX TEMP: 94; $$ SCZ027-028-034-036>038-045-046-048>050-GAZ119-141-290100- ...LAKE AND SUPPLEMENTAL COASTAL OBSERVATIONS... STATION/POSITION TIME TEMP WIND PRES WAVE SWELL AIR SEA DIR/SP/G HT/PER HT/PER/DIR (UTC) (F) (DEG/KT/KT) (MB) (FT/S) (FT/S/D) WINYAH BAY 2245 89 220/ 13 1012.0 LAKE MURRAY 2300 93 260/ 15/ 20 1011.5R ACE BASIN NERRS NOT AVBL FORT PULASKI 2300 88 N/A SAPELO ISLAND 2300 91 180/ 12 1014.0S $$ ANZ835-935-AMZ111-154-330-350-352-354-370-450-454-472-290100- ...C-MAN AND BUOY OBSERVATIONS... STATION/POSITION TIME TEMP WIND PRES WAVE SWELL AIR SEA DIR/SP/G HT/PER HT/PER/DIR (UTC) (F) (DEG/KT/KT) (MB) (FT/S) (FT/S/D) BUOY 41004 2350 86 86 200/ 17/ 21 1013.3 3/ 4 2/150/ 8 BUOY 41008 2250 87 87 160/ 16/ 19 1014.1 2/ 4 FOLLY BEACH CMAN 2300 87 200/ 16/ 18 1014.0F CAPERS NEARSHORE 2308 86 84 220/ 17/ 23 1013.6F FRIPP NEARSHORE 2308 87 87 190/ 17/ 21 1013.1R STATION/POSITION TIME TEMP WIND PRES WAVE SWELL AIR SEA DIR/SP/G HT/PER HT/PER/DIR (UTC) (F) (DEG/KT/KT) (MB) (FT/S) (FT/S/D) 5E ST. MARYS GA 0001 86 N/A 2/ 3 FRYING PAN BUOY 2300 87 85 220/ 17/ 21 1012.6F BUOY 41025 2350 87 85 220/ 16/ 19 1011.2F 3/ 4 2/130/ 8 CAPE LOOKOUT NC 2300 86 220/ 12/ 15 1011.4F BUOY 41002 2350 84 85 220/ 6/ 10 1015.1F 3/ 6 3/240/ 6 BUOY 41010 2320 86 88 270/ 2/ 4 1017.2F ST AUGUSTINE FL 0000 84 87 170/ 14/ 15 1016.8R $$

USA.gov is the U.S. government's official web portal to all federal, state and local government web resources and services.